Oslo Airport, Norway

2:55 PM CEST on August 17, 2017 (GMT +0200)
Gardermoen

Weather History for ENGM - October, 2013

Change the Weather History Date:

Tuesday, October 1, 2013

  Actual Average Record
Temperature  
Mean Temperature 40 °F -  
Max Temperature 51 °F 45 °F 60 °F (2006)
Min Temperature 30 °F 34 °F 30 °F (2013)
Degree Days  
Heating Degree Days 24    
Moisture  
Dew Point 35 °F    
Average Humidity 81    
Maximum Humidity 93    
Minimum Humidity 54    
Precipitation  
Precipitation 0.01 in 0.13 in - ()
Sea Level Pressure  
Sea Level Pressure 30.28 in    
Wind  
Wind Speed 3 mph ()    
Max Wind Speed 8 mph    
Max Gust Speed -    
Visibility 6.2 miles    
Events Fog    
Averages and records for this station are not official NWS values.
T = Trace of Precipitation, MM = Missing Value Source: Averaged Metar Reports

Daily Weather History Graph

Daily Weather History Graph

Search for Another Location

Airport or City:

Trip Planner

Search our weather history database for the weather conditions in past years. The results will help you decide how hot, cold, wet, or windy it might be!

Date:

Astronomy

Oct. 01, 2013 Rise Set
Actual Time 7:21 AM CEST 6:47 PM CEST
Civil Twilight 6:39 AM CEST 7:29 PM CEST
Nautical Twilight 5:50 AM CEST 8:18 PM CEST
Astronomical Twilight 4:58 AM CEST 9:09 PM CEST
Moon 2:51 AM CEST (10/1) 5:21 PM CEST (10/1)
Length of Visible Light 12h 49m
Length of Day
11h 26m
Waning Crescent, 14% of the Moon is Illuminated
Oct 1
Waning Crescent
Oct 5
New
Oct 12
First Quarter
Oct 19
Full
Oct 27
Last Quarter

Hourly Weather History & Observations

Time (CEST) Temp. Windchill Dew Point Humidity Pressure Visibility Wind Dir Wind Speed Gust Speed Precip Events Conditions
12:20 AM 35.6 °F 32.8 °F 33.8 °F 93% 30.27 in 6.2 mi NNW 3.5 mph - N/A   Mostly Cloudy
12:50 AM 35.6 °F - 32.0 °F 87% 30.27 in - NNW 2.3 mph - N/A   Clear
1:20 AM 33.8 °F - 32.0 °F 93% 30.27 in - Variable 2.3 mph - N/A   Clear
1:50 AM 33.8 °F - 32.0 °F 93% 30.27 in - NNW 2.3 mph - N/A   Clear
2:00 AM 34 °F - 33 °F 92%  in 47 mi North 4.5 mph - -   Partly Cloudy
2:20 AM 33.8 °F - 32.0 °F 93% 30.27 in - North 1.2 mph - N/A   Clear
2:50 AM 33.8 °F - 32.0 °F 93% 30.30 in 6.2 mi Variable 2.3 mph - N/A   Unknown
3:20 AM 32.0 °F - 30.2 °F 93% 30.27 in - Variable 1.2 mph - N/A   Clear
3:50 AM 32.0 °F - 30.2 °F 93% 30.30 in 6.2 mi North 1.2 mph - N/A Fog Patches of Fog
4:20 AM 30.2 °F - 28.4 °F 93% 30.30 in 6.2 mi North 2.3 mph - N/A Fog Patches of Fog
4:50 AM 32.0 °F - 30.2 °F 93% 30.30 in 6.2 mi NW 1.2 mph - N/A Fog Patches of Fog
5:20 AM 32.0 °F - 30.2 °F 93% 30.27 in 6.2 mi NNW 2.3 mph - N/A   Partly Cloudy
5:50 AM 30.2 °F - 28.4 °F 93% 30.27 in 6.2 mi Variable 1.2 mph - N/A Fog Patches of Fog
6:20 AM 32.0 °F - 30.2 °F 93% 30.27 in 6.2 mi Variable 2.3 mph - N/A   Mostly Cloudy
6:50 AM 33.8 °F - 32.0 °F 93% 30.27 in 6.2 mi Variable 2.3 mph - N/A   Scattered Clouds
7:20 AM 33.8 °F - 32.0 °F 93% 30.30 in 6.2 mi Variable 1.2 mph - N/A Fog Scattered Clouds
7:50 AM 33.8 °F - 32.0 °F 93% 30.30 in 6.2 mi Calm Calm - N/A Fog Scattered Clouds
8:00 AM 33 °F - 32 °F 93%  in 47 mi Calm Calm - - Fog Light Fog
8:20 AM 35.6 °F - 32.0 °F 87% 30.30 in 6.2 mi Calm Calm - N/A Fog Scattered Clouds
8:50 AM 35.6 °F - 32.0 °F 87% 30.30 in 6.2 mi Calm Calm - N/A Fog Partly Cloudy
9:20 AM 37.4 °F - 33.8 °F 87% 30.30 in 6.2 mi Calm Calm - N/A   Partly Cloudy
9:50 AM 41.0 °F - 35.6 °F 81% 30.30 in 6.2 mi Variable 1.2 mph - N/A   Partly Cloudy
10:20 AM 42.8 °F - 35.6 °F 76% 30.30 in - Variable 2.3 mph - N/A   Clear
10:50 AM 42.8 °F 40.1 °F 37.4 °F 81% 30.30 in 6.2 mi South 4.6 mph - N/A   Partly Cloudy
11:20 AM 44.6 °F 41.4 °F 37.4 °F 76% 30.30 in 6.2 mi South 5.8 mph - N/A   Partly Cloudy
11:50 AM 44.6 °F 42.2 °F 37.4 °F 76% 30.30 in 6.2 mi SSW 4.6 mph - N/A   Partly Cloudy
12:20 PM 46.4 °F 44.3 °F 37.4 °F 71% 30.30 in 6.2 mi SSW 4.6 mph - N/A   Partly Cloudy
12:50 PM 48.2 °F - 39.2 °F 71% 30.30 in 6.2 mi South 6.9 mph - N/A   Partly Cloudy
1:20 PM 48.2 °F - 39.2 °F 71% 30.30 in 6.2 mi South 5.8 mph - N/A   Partly Cloudy
1:50 PM 50.0 °F - 39.2 °F 66% 30.30 in - South 6.9 mph - N/A   Clear
2:00 PM 50 °F - 38 °F 54%  in 47 mi South 6.7 mph - -   Partly Cloudy
2:20 PM 50.0 °F - 39.2 °F 66% 30.27 in 6.2 mi South 6.9 mph - N/A   Partly Cloudy
2:50 PM 51.8 °F - 37.4 °F 58% 30.27 in 6.2 mi South 6.9 mph - N/A   Partly Cloudy
3:20 PM 51.8 °F - 37.4 °F 58% 30.27 in 6.2 mi South 8.1 mph - N/A   Partly Cloudy
3:50 PM 51.8 °F - 37.4 °F 58% 30.27 in 6.2 mi South 6.9 mph - N/A   Partly Cloudy
4:20 PM 48.2 °F - 37.4 °F 66% 30.27 in 6.2 mi South 8.1 mph - N/A   Partly Cloudy
5:20 PM 50.0 °F - 37.4 °F 62% 30.27 in 6.2 mi South 8.1 mph - N/A   Partly Cloudy
5:50 PM 50.0 °F - 37.4 °F 62% 30.27 in 6.2 mi SSW 8.1 mph - N/A   Partly Cloudy
6:20 PM 46.4 °F 42.4 °F 37.4 °F 71% 30.27 in - SSW 8.1 mph - N/A   Clear
6:50 PM 46.4 °F 42.9 °F 35.6 °F 66% 30.27 in - South 6.9 mph - N/A   Clear
7:20 PM 44.6 °F 41.4 °F 35.6 °F 71% 30.27 in - SSW 5.8 mph - N/A   Clear
7:50 PM 42.8 °F 41.1 °F 35.6 °F 76% 30.27 in - SSW 3.5 mph - N/A   Clear
8:00 PM 43 °F - 36 °F 70%  in 47 mi South 2.2 mph - -   Partly Cloudy
8:20 PM 42.8 °F - 35.6 °F 76% 30.27 in - WSW 1.2 mph - N/A   Clear
8:50 PM 41.0 °F - 35.6 °F 81% 30.27 in - Variable 1.2 mph - N/A   Clear
9:20 PM 39.2 °F - 35.6 °F 87% 30.27 in - Variable 1.2 mph - N/A   Clear
9:50 PM 39.2 °F - 35.6 °F 87% 30.30 in - Calm Calm - N/A   Clear
10:20 PM 39.2 °F - 35.6 °F 87% 30.30 in - Calm Calm - N/A   Clear
10:50 PM 39.2 °F - 35.6 °F 87% 30.30 in - South 2.3 mph - N/A   Clear
11:20 PM 37.4 °F 34.9 °F 35.6 °F 93% 30.30 in - SSW 3.5 mph - N/A   Clear
11:50 PM 35.6 °F - 33.8 °F 93% 30.30 in - SSW 2.3 mph - N/A   Clear